Location: Unspecified
(0.0000°N, 0.0000°E)
Time: 07:16:51
(UTC+00:00)

Explorer 11/Cluster Stage 4 - Pass Details

Date: 21 December 2018
Orbit: 467 x 1260 km, 28.8° (Epoch: 19 June)

Event Time Altitude Azimuth Distance (km) Brightness Sun altitude
Rises 20:49:40 0° 269° (W) 4,184 11.0 -38.6°
Reaches altitude 10° 20:53:26 10° 283° (WNW) 3,166 10.1 -39.4°
Enters shadow 20:57:09 20° 308° (NW) 2,419 9.1 -40.2°
